星链-30910 (STARLINK-30910 )

导读

STARLINK-30910是美国SpaceX星链互联网卫星项目的成员,于2023年11月20日发射升空,属于星链星座的低轨组网部署卫星。星链项目旨在构建全球卫星互联网系统,该卫星入轨后承担低轨道上的通信传输任务,为全球偏远地区等提供宽带互联网接入服务,推动全球互联网络覆盖能力提升。

基本信息
目录编号:
58376
目录名称:
STARLINK-30910
国际标识:
2023-178C
轨道中心:
EARTH
卫星名称:
星链-30910
卫星全名:
星链-30910 (STARLINK-30910 )
卫星状态:
在轨 (已飞行1026 天)
发射日期:
2023-11-20 UTC
国别 :
美国 (US)
星等 :
--
该卫星已列入 空间交会检测服务 Space Conjunction Data Service (SCDS) ,当前飞行风险评估等级: 高风险
轨道信息
数据来源 国际轨道数据 AOE轨道数据
星历时间 2026-09-11T14:32:51+0800
10小时前
查看轨道信息
2026-09-09T22:00:00+0800
2天前
查看轨道信息
半长轴 6840.887km 6840.874km
偏心率 0.0001663 0.0001286
轨道倾角 53.156° 53.157°
近地点辐角 94.896° 77.632°
升交点赤经 214.907° 222.812°
平近点角 265.223° 304.937°
近地点 461.612km 461.857km
远地点 463.888km 463.617km
周期 93.849分钟 93.848分钟
每日圈数 15.343844 15.343889
详细信息
固有亮度:
5
最大亮度:
0.3
卫星平台:
Starlink v2.0 mini
覆盖范围:
全球
运营商:
太空探索技术公司
运营商所在国:
美国
制造商(研发单位):
太空探索技术公司
制造商所在国:
美国
使用方式:
暂无
卫星简介
星链(Starlink)计划是由太空探索技术公司(SpaceX)提出的一个巨型低轨卫星互联网星座项目,计划在2019年至2024年间在太空搭建由约1.2万颗卫星组成的“星链”网络,其中1584颗将部署在地球上空550千米处的近地轨道,并从2020年开始工作。该卫星仍在工作。
2D轨道图
3D轨道图
轨道高度分析图
轨道倾角分析图
轨道综合分析图
查看轨道综合分析图
与全量物体交会距离演化趋势
与全量物体交会风险概率演化趋势